TimeEDT,TemperatureF,Dew PointF,Humidity,Sea Level PressureIn,VisibilityMPH,Wind Direction,Wind SpeedMPH,Gust SpeedMPH,PrecipitationIn,Events,Conditions,WindDirDegrees,DateUTC
12:51 AM,55.9,55.0,97,29.92,7.0,SSW,6.9,-,N/A,,Overcast,210,2012-04-16 04:51:00
1:51 AM,57.0,55.0,93,29.91,9.0,SW,9.2,-,N/A,,Overcast,220,2012-04-16 05:51:00
2:02 AM,57.2,55.4,94,29.91,9.0,SW,8.1,-,N/A,,Overcast,230,2012-04-16 06:02:00
2:12 AM,57.2,55.4,94,29.91,10.0,SW,6.9,-,N/A,,Overcast,230,2012-04-16 06:12:00
2:51 AM,57.0,55.0,93,29.90,8.0,SW,9.2,-,N/A,,Overcast,220,2012-04-16 06:51:00
3:14 AM,57.2,55.4,94,29.90,7.0,SW,8.1,-,N/A,,Mostly Cloudy,230,2012-04-16 07:14:00
3:51 AM,57.0,55.0,93,29.90,6.0,WSW,5.8,-,N/A,,Overcast,240,2012-04-16 07:51:00
4:51 AM,55.9,55.0,97,29.91,4.0,WSW,3.5,-,N/A,,Scattered Clouds,250,2012-04-16 08:51:00
5:51 AM,57.0,55.0,93,29.90,6.0,WSW,5.8,-,N/A,,Overcast,240,2012-04-16 09:51:00
6:51 AM,57.2,55.4,94,29.91,7.0,WSW,8.1,-,N/A,,Scattered Clouds,240,2012-04-16 10:51:00
7:51 AM,61.0,55.0,81,29.90,9.0,SW,6.9,-,N/A,,Clear,230,2012-04-16 11:51:00
8:51 AM,66.0,55.0,68,29.90,10.0,SW,5.8,-,N/A,,Mostly Cloudy,230,2012-04-16 12:51:00
9:51 AM,70.0,53.1,55,29.89,10.0,SSW,11.5,21.9,0.01,,Clear,210,2012-04-16 13:51:00
10:51 AM,71.1,53.1,53,29.87,10.0,SSW,12.7,21.9,N/A,,Clear,200,2012-04-16 14:51:00
11:51 AM,73.4,51.8,47,29.88,10.0,SW,11.5,24.2,N/A,,Clear,230,2012-04-16 15:51:00
12:51 PM,73.0,52.0,48,29.86,10.0,SW,19.6,25.3,N/A,,Clear,230,2012-04-16 16:51:00
1:51 PM,75.9,52.0,43,29.84,10.0,SW,19.6,26.5,N/A,,Clear,230,2012-04-16 17:51:00
2:51 PM,78.1,52.0,40,29.81,10.0,SSW,16.1,24.2,N/A,,Clear,210,2012-04-16 18:51:00
3:51 PM,80.1,52.0,38,29.78,10.0,South,15.0,23.0,N/A,,Clear,190,2012-04-16 19:51:00
4:51 PM,82.0,46.9,29,29.75,10.0,SW,21.9,32.2,N/A,,Clear,220,2012-04-16 20:51:00
5:51 PM,81.0,48.0,31,29.75,10.0,SW,16.1,24.2,N/A,,Clear,230,2012-04-16 21:51:00
6:51 PM,77.0,48.0,36,29.73,10.0,SSW,10.4,-,N/A,,Scattered Clouds,200,2012-04-16 22:51:00
7:51 PM,75.9,46.9,36,29.75,10.0,SW,10.4,19.6,N/A,,Overcast,220,2012-04-16 23:51:00
8:51 PM,75.9,46.9,36,29.76,10.0,WSW,5.8,-,N/A,,Overcast,250,2012-04-17 00:51:00
9:51 PM,70.0,54.0,57,29.80,10.0,WSW,8.1,16.1,0.00,,Overcast,250,2012-04-17 01:51:00
10:51 PM,62.1,59.0,90,29.85,5.0,WSW,9.2,-,0.03,Rain,Light Rain,240,2012-04-17 02:51:00
11:51 PM,60.1,57.9,93,29.86,6.0,SW,9.2,-,0.03,Rain,Light Rain,230,2012-04-17 03:51:00